Torna al catalogo

SL-6 DEB

LostHEO
NORAD 18598·DEBRIS·🇷🇺 Russia

Lanciato Sep 11, 1981 da Plesetsk Cosmodrome

Loading…

Prossimi Passaggi (prossime 24 ore)

TLE

ObsoletoSource: Space-Track

Epoca: Oct 7, 2021, 02:11 UTC

1 18598U 81088N   21280.09150914  .00012743  00000-0  69934-3 0  9999
2 18598  62.8260 107.0671 4936798 258.0743  44.6414  5.80179780818087

Traccia SL-6 DEB in tempo reale con AllMySat

Download on the App Store